Year,Month,Day,Hour,Minute,Value (Times are PST for temperature in C)
2015,04,29,00,00,7.20
2015,04,29,00,01,7.20
2015,04,29,00,02,7.20
2015,04,29,00,03,7.10
2015,04,29,00,04,7.10
2015,04,29,00,05,7.10
2015,04,29,00,06,7.10
2015,04,29,00,07,7.00
2015,04,29,00,08,7.00
2015,04,29,00,09,7.00
2015,04,29,00,10,7.00
2015,04,29,00,11,7.00
2015,04,29,00,12,7.00
2015,04,29,00,13,7.00
2015,04,29,00,14,7.00
2015,04,29,00,15,7.00
2015,04,29,00,16,7.00
2015,04,29,00,17,7.00
2015,04,29,00,18,7.00
2015,04,29,00,19,7.00
2015,04,29,00,20,6.90
2015,04,29,00,21,6.90
2015,04,29,00,22,6.90
2015,04,29,00,23,6.90
2015,04,29,00,24,6.90
2015,04,29,00,25,6.90
2015,04,29,00,26,6.90
2015,04,29,00,27,6.90
2015,04,29,00,28,6.90
2015,04,29,00,29,6.90
2015,04,29,00,30,6.90
2015,04,29,00,31,6.90
2015,04,29,00,32,6.90
2015,04,29,00,33,6.90
2015,04,29,00,34,6.90
2015,04,29,00,35,6.90
2015,04,29,00,36,6.90
2015,04,29,00,37,7.00
2015,04,29,00,38,7.00
2015,04,29,00,39,7.00
2015,04,29,00,40,7.00
2015,04,29,00,41,7.00
2015,04,29,00,42,7.00
2015,04,29,00,43,7.10
2015,04,29,00,44,7.10
2015,04,29,00,45,7.10
2015,04,29,00,46,7.10
2015,04,29,00,47,7.10
2015,04,29,00,48,7.10
2015,04,29,00,49,7.10
2015,04,29,00,50,7.10
2015,04,29,00,51,7.10
2015,04,29,00,52,7.10
2015,04,29,00,53,7.20
2015,04,29,00,54,7.20
2015,04,29,00,55,7.20
2015,04,29,00,56,7.20
2015,04,29,00,57,7.20
2015,04,29,00,58,7.30
2015,04,29,00,59,7.30
2015,04,29,01,00,7.30
2015,04,29,01,01,7.30
2015,04,29,01,02,7.30
2015,04,29,01,03,7.30
2015,04,29,01,04,7.30
2015,04,29,01,05,7.30
2015,04,29,01,06,7.30
2015,04,29,01,07,7.30
2015,04,29,01,08,7.30
2015,04,29,01,09,7.30
2015,04,29,01,10,7.30
2015,04,29,01,11,7.30
2015,04,29,01,12,7.40
2015,04,29,01,13,7.40
2015,04,29,01,14,7.40
2015,04,29,01,15,7.40
2015,04,29,01,16,7.40
2015,04,29,01,17,7.40
2015,04,29,01,18,7.40
2015,04,29,01,19,7.40
2015,04,29,01,20,7.40
2015,04,29,01,21,7.40
2015,04,29,01,22,7.30
2015,04,29,01,23,7.30
2015,04,29,01,24,7.30
2015,04,29,01,25,7.30
2015,04,29,01,26,7.30
2015,04,29,01,27,7.30
2015,04,29,01,28,7.30
2015,04,29,01,29,7.30
2015,04,29,01,30,7.30
2015,04,29,01,31,7.30
2015,04,29,01,32,7.20
2015,04,29,01,33,7.20
2015,04,29,01,34,7.20
2015,04,29,01,35,7.20
2015,04,29,01,36,7.20
2015,04,29,01,37,7.20
2015,04,29,01,38,7.10
2015,04,29,01,39,7.10
2015,04,29,01,40,7.10
2015,04,29,01,41,7.10
2015,04,29,01,42,7.00
2015,04,29,01,43,7.00
2015,04,29,01,44,7.00
2015,04,29,01,45,6.90
2015,04,29,01,46,6.90
2015,04,29,01,47,6.90
2015,04,29,01,48,6.90
2015,04,29,01,49,6.90
2015,04,29,01,50,6.90
2015,04,29,01,51,6.90
2015,04,29,01,52,6.90
2015,04,29,01,53,6.90
2015,04,29,01,54,6.90
2015,04,29,01,55,6.90
2015,04,29,01,56,6.80
2015,04,29,01,57,6.80
2015,04,29,01,58,6.80
2015,04,29,01,59,6.80
2015,04,29,02,00,6.80
2015,04,29,02,01,6.80
2015,04,29,02,02,6.80
2015,04,29,02,03,6.80
2015,04,29,02,04,6.80
2015,04,29,02,05,6.80
2015,04,29,02,06,6.80
2015,04,29,02,07,6.80
2015,04,29,02,08,6.80
2015,04,29,02,09,6.80
2015,04,29,02,10,6.80
2015,04,29,02,11,6.80
2015,04,29,02,12,6.80
2015,04,29,02,13,6.80
2015,04,29,02,14,6.80
2015,04,29,02,15,6.80
2015,04,29,02,16,6.80
2015,04,29,02,17,6.80
2015,04,29,02,18,6.80
2015,04,29,02,19,6.80
2015,04,29,02,20,6.70
2015,04,29,02,21,6.70
2015,04,29,02,22,6.70
2015,04,29,02,23,6.70
2015,04,29,02,24,6.70
2015,04,29,02,25,6.70
2015,04,29,02,26,6.70
2015,04,29,02,27,6.60
2015,04,29,02,28,6.60
2015,04,29,02,29,6.60
2015,04,29,02,30,6.50
2015,04,29,02,31,6.50
2015,04,29,02,32,6.50
2015,04,29,02,33,6.40
2015,04,29,02,34,6.40
2015,04,29,02,35,6.40
2015,04,29,02,36,6.40
2015,04,29,02,37,6.40
2015,04,29,02,38,6.30
2015,04,29,02,39,6.30
2015,04,29,02,40,6.30
2015,04,29,02,41,6.30
2015,04,29,02,42,6.30
2015,04,29,02,43,6.30
2015,04,29,02,44,6.30
2015,04,29,02,45,6.30
2015,04,29,02,46,6.30
2015,04,29,02,47,6.30
2015,04,29,02,48,6.30
2015,04,29,02,49,6.30
2015,04,29,02,50,6.40
2015,04,29,02,51,6.40
2015,04,29,02,52,6.40
2015,04,29,02,53,6.40
2015,04,29,02,54,6.40
2015,04,29,02,55,6.40
2015,04,29,02,56,6.40
2015,04,29,02,57,6.40
2015,04,29,02,58,6.40
2015,04,29,02,59,6.40
2015,04,29,03,00,6.40
2015,04,29,03,01,6.30
2015,04,29,03,02,6.30
2015,04,29,03,03,6.30
2015,04,29,03,04,6.30
2015,04,29,03,05,6.20
2015,04,29,03,06,6.20
2015,04,29,03,07,6.20
2015,04,29,03,08,6.20
2015,04,29,03,09,6.20
2015,04,29,03,10,6.20
2015,04,29,03,11,6.20
2015,04,29,03,12,6.20
2015,04,29,03,13,6.20
2015,04,29,03,14,6.20
2015,04,29,03,15,6.20
2015,04,29,03,16,6.20
2015,04,29,03,17,6.20
2015,04,29,03,18,6.20
2015,04,29,03,19,6.20
2015,04,29,03,20,6.20
2015,04,29,03,21,6.20
2015,04,29,03,22,6.20
2015,04,29,03,23,6.20
2015,04,29,03,24,6.20
2015,04,29,03,25,6.20
2015,04,29,03,26,6.10
2015,04,29,03,27,6.10
2015,04,29,03,28,6.10
2015,04,29,03,29,6.10
2015,04,29,03,30,6.10
2015,04,29,03,31,6.10
2015,04,29,03,32,6.10
2015,04,29,03,33,6.10
2015,04,29,03,34,6.00
2015,04,29,03,35,6.00
2015,04,29,03,36,6.00
2015,04,29,03,37,6.00
2015,04,29,03,38,6.00
2015,04,29,03,39,6.00
2015,04,29,03,40,6.00
2015,04,29,03,41,6.00
2015,04,29,03,42,6.00
2015,04,29,03,43,6.00
2015,04,29,03,44,6.00
2015,04,29,03,45,6.00
2015,04,29,03,46,6.00
2015,04,29,03,47,6.00
2015,04,29,03,48,6.00
2015,04,29,03,49,6.00
2015,04,29,03,50,6.00
2015,04,29,03,51,6.00
2015,04,29,03,52,6.00
2015,04,29,03,53,6.10
2015,04,29,03,54,6.00
2015,04,29,03,55,6.00
2015,04,29,03,56,6.00
2015,04,29,03,57,6.00
2015,04,29,03,58,6.00
2015,04,29,03,59,6.00
2015,04,29,04,00,6.00
2015,04,29,04,01,6.00
2015,04,29,04,02,6.00
2015,04,29,04,03,6.00
2015,04,29,04,04,6.00
2015,04,29,04,05,6.00
2015,04,29,04,06,5.90
2015,04,29,04,07,5.90
2015,04,29,04,08,5.90
2015,04,29,04,09,5.90
2015,04,29,04,10,5.90
2015,04,29,04,11,6.00
2015,04,29,04,12,6.00
2015,04,29,04,13,6.00
2015,04,29,04,14,6.00
2015,04,29,04,15,6.00
2015,04,29,04,16,6.00
2015,04,29,04,17,6.00
2015,04,29,04,18,6.00
2015,04,29,04,19,6.00
2015,04,29,04,20,6.00
2015,04,29,04,21,6.00
2015,04,29,04,22,6.00
2015,04,29,04,23,6.00
2015,04,29,04,24,6.00
2015,04,29,04,25,6.00
2015,04,29,04,26,6.00
2015,04,29,04,27,5.90
2015,04,29,04,28,5.90
2015,04,29,04,29,5.90
2015,04,29,04,30,5.90
2015,04,29,04,31,6.00
2015,04,29,04,32,6.00
2015,04,29,04,33,6.00
2015,04,29,04,34,6.00
2015,04,29,04,35,6.00
2015,04,29,04,36,6.00
2015,04,29,04,37,6.00
2015,04,29,04,38,6.00
2015,04,29,04,39,6.00
2015,04,29,04,40,6.00
2015,04,29,04,41,6.10
2015,04,29,04,42,6.10
2015,04,29,04,43,6.10
2015,04,29,04,44,6.10
2015,04,29,04,45,6.10
2015,04,29,04,46,6.10
2015,04,29,04,47,6.10
2015,04,29,04,48,6.00
2015,04,29,04,49,6.10
2015,04,29,04,50,6.00
2015,04,29,04,51,6.00
2015,04,29,04,52,6.00
2015,04,29,04,53,6.00
2015,04,29,04,54,6.00
2015,04,29,04,55,6.00
2015,04,29,04,56,6.00
2015,04,29,04,57,6.00
2015,04,29,04,58,6.10
2015,04,29,04,59,6.10
2015,04,29,05,00,6.10
2015,04,29,05,01,6.10
2015,04,29,05,02,6.10
2015,04,29,05,03,6.10
2015,04,29,05,04,6.10
2015,04,29,05,05,6.10
2015,04,29,05,06,6.10
2015,04,29,05,07,6.10
2015,04,29,05,08,6.10
2015,04,29,05,09,6.10
2015,04,29,05,10,6.10
2015,04,29,05,11,6.10
2015,04,29,05,12,6.10
2015,04,29,05,13,6.10
2015,04,29,05,14,6.10
2015,04,29,05,15,6.10
2015,04,29,05,16,6.10
2015,04,29,05,17,6.10
2015,04,29,05,18,6.10
2015,04,29,05,19,6.10
2015,04,29,05,20,6.10
2015,04,29,05,21,6.10
2015,04,29,05,22,6.10
2015,04,29,05,23,6.10
2015,04,29,05,24,6.10
2015,04,29,05,25,6.10
2015,04,29,05,26,6.10
2015,04,29,05,27,6.10
2015,04,29,05,28,6.20
2015,04,29,05,29,6.20
2015,04,29,05,30,6.20
2015,04,29,05,31,6.20
2015,04,29,05,32,6.20
2015,04,29,05,33,6.20
2015,04,29,05,34,6.20
2015,04,29,05,35,6.20
2015,04,29,05,36,6.20
2015,04,29,05,37,6.10
2015,04,29,05,38,6.10
2015,04,29,05,39,6.10
2015,04,29,05,40,6.10
2015,04,29,05,41,6.20
2015,04,29,05,42,6.20
2015,04,29,05,43,6.20
2015,04,29,05,44,6.20
2015,04,29,05,45,6.20
2015,04,29,05,46,6.20
2015,04,29,05,47,6.20
2015,04,29,05,48,6.20
2015,04,29,05,49,6.20
2015,04,29,05,50,6.20
2015,04,29,05,51,6.20
2015,04,29,05,52,6.20
2015,04,29,05,53,6.20
2015,04,29,05,54,6.20
2015,04,29,05,55,6.20
2015,04,29,05,56,6.20
2015,04,29,05,57,6.20
2015,04,29,05,58,6.20
2015,04,29,05,59,6.20
2015,04,29,06,00,6.20
2015,04,29,06,01,6.20
2015,04,29,06,02,6.20
2015,04,29,06,03,6.20
2015,04,29,06,04,6.20
2015,04,29,06,05,6.20
2015,04,29,06,06,6.20
2015,04,29,06,07,6.20
2015,04,29,06,08,6.20
2015,04,29,06,09,6.20
2015,04,29,06,10,6.10
2015,04,29,06,11,6.10
2015,04,29,06,12,6.10
2015,04,29,06,13,6.20
2015,04,29,06,14,6.20
2015,04,29,06,15,6.20
2015,04,29,06,16,6.20
2015,04,29,06,17,6.20
2015,04,29,06,18,6.20
2015,04,29,06,19,6.20
2015,04,29,06,20,6.20
2015,04,29,06,21,6.20
2015,04,29,06,22,6.10
2015,04,29,06,23,6.10
2015,04,29,06,24,6.10
2015,04,29,06,25,6.10
2015,04,29,06,26,6.20
2015,04,29,06,27,6.20
2015,04,29,06,28,6.20
2015,04,29,06,29,6.20
2015,04,29,06,30,6.20
2015,04,29,06,31,6.20
2015,04,29,06,32,6.20
2015,04,29,06,33,6.20
2015,04,29,06,34,6.20
2015,04,29,06,35,6.10
2015,04,29,06,36,6.10
2015,04,29,06,37,6.10
2015,04,29,06,38,6.10
2015,04,29,06,39,6.10
2015,04,29,06,40,6.10
2015,04,29,06,41,6.10
2015,04,29,06,42,6.10
2015,04,29,06,43,6.10
2015,04,29,06,44,6.10
2015,04,29,06,45,6.10
2015,04,29,06,46,6.10
2015,04,29,06,47,6.10
2015,04,29,06,48,6.10
2015,04,29,06,49,6.10
2015,04,29,06,50,6.10
2015,04,29,06,51,6.10
2015,04,29,06,52,6.10
2015,04,29,06,53,6.10
2015,04,29,06,54,6.10
2015,04,29,06,55,6.10
2015,04,29,06,56,6.10
2015,04,29,06,57,6.10
2015,04,29,06,58,6.10
2015,04,29,06,59,6.10
2015,04,29,07,00,6.10
2015,04,29,07,01,6.10
2015,04,29,07,02,6.10
2015,04,29,07,03,6.10
2015,04,29,07,04,6.10
2015,04,29,07,05,6.10
2015,04,29,07,06,6.10
2015,04,29,07,07,6.10
2015,04,29,07,08,6.10
2015,04,29,07,09,6.10
2015,04,29,07,10,6.10
2015,04,29,07,11,6.10
2015,04,29,07,12,6.10
2015,04,29,07,13,6.20
2015,04,29,07,14,6.10
2015,04,29,07,15,6.20
2015,04,29,07,16,6.20
2015,04,29,07,17,6.20
2015,04,29,07,18,6.20
2015,04,29,07,19,6.20
2015,04,29,07,20,6.20
2015,04,29,07,21,6.20
2015,04,29,07,22,6.20
2015,04,29,07,23,6.30
2015,04,29,07,24,6.30
2015,04,29,07,25,6.30
2015,04,29,07,26,6.30
2015,04,29,07,27,6.40
2015,04,29,07,28,6.40
2015,04,29,07,29,6.40
2015,04,29,07,30,6.40
2015,04,29,07,31,6.40
2015,04,29,07,32,6.40
2015,04,29,07,33,6.50
2015,04,29,07,34,6.50
2015,04,29,07,35,6.60
2015,04,29,07,36,6.60
2015,04,29,07,37,6.60
2015,04,29,07,38,6.70
2015,04,29,07,39,6.70
2015,04,29,07,40,6.70
2015,04,29,07,41,6.80
2015,04,29,07,42,6.80
2015,04,29,07,43,6.80
2015,04,29,07,44,6.80
2015,04,29,07,45,6.90
2015,04,29,07,46,6.90
2015,04,29,07,47,6.90
2015,04,29,07,48,7.00
2015,04,29,07,49,7.00
2015,04,29,07,50,7.10
2015,04,29,07,51,7.10
2015,04,29,07,52,7.10
2015,04,29,07,53,7.10
2015,04,29,07,54,7.10
2015,04,29,07,55,7.10
2015,04,29,07,56,7.10
2015,04,29,07,57,7.10
2015,04,29,07,58,7.20
2015,04,29,07,59,7.20
2015,04,29,08,00,7.20
2015,04,29,08,01,7.20
2015,04,29,08,02,7.20
2015,04,29,08,03,7.30
2015,04,29,08,04,7.30
2015,04,29,08,05,7.30
2015,04,29,08,06,7.30
2015,04,29,08,07,7.40
2015,04,29,08,08,7.40
2015,04,29,08,09,7.40
2015,04,29,08,10,7.40
2015,04,29,08,11,7.50
2015,04,29,08,12,7.50
2015,04,29,08,13,7.60
2015,04,29,08,14,7.60
2015,04,29,08,15,7.60
2015,04,29,08,16,7.60
2015,04,29,08,17,7.70
2015,04,29,08,18,7.70
2015,04,29,08,19,7.70
2015,04,29,08,20,7.80
2015,04,29,08,21,7.80
2015,04,29,08,22,7.90
2015,04,29,08,23,8.00
2015,04,29,08,24,8.00
2015,04,29,08,25,8.10
2015,04,29,08,26,8.20
2015,04,29,08,27,8.30
2015,04,29,08,28,8.40
2015,04,29,08,29,8.50
2015,04,29,08,30,8.60
2015,04,29,08,31,8.70
2015,04,29,08,32,8.80
2015,04,29,08,33,8.80
2015,04,29,08,34,8.90
2015,04,29,08,35,9.00
2015,04,29,08,36,9.10
2015,04,29,08,37,9.10
2015,04,29,08,38,9.20
2015,04,29,08,39,9.30
2015,04,29,08,40,9.30
2015,04,29,08,41,9.50
2015,04,29,08,42,9.60
2015,04,29,08,43,9.70
2015,04,29,08,44,9.70
2015,04,29,08,45,9.80
2015,04,29,08,46,9.80
2015,04,29,08,47,9.80
2015,04,29,08,48,9.90
2015,04,29,08,49,9.90
2015,04,29,08,50,10.00
2015,04,29,08,51,10.00
2015,04,29,08,52,10.10
2015,04,29,08,53,10.10
2015,04,29,08,54,10.10
2015,04,29,08,55,10.10
2015,04,29,08,56,10.10
2015,04,29,08,57,10.10
2015,04,29,08,58,10.10
2015,04,29,08,59,10.20
2015,04,29,09,00,10.20
2015,04,29,09,01,10.30
2015,04,29,09,02,10.30
2015,04,29,09,03,10.30
2015,04,29,09,04,10.30
2015,04,29,09,05,10.30
2015,04,29,09,06,10.40
2015,04,29,09,07,10.50
2015,04,29,09,08,10.50
2015,04,29,09,09,10.60
2015,04,29,09,10,10.70
2015,04,29,09,11,10.70
2015,04,29,09,12,10.70
2015,04,29,09,13,10.70
2015,04,29,09,14,10.70
2015,04,29,09,15,10.70
2015,04,29,09,16,10.70
2015,04,29,09,17,10.70
2015,04,29,09,18,10.70
2015,04,29,09,19,10.70
2015,04,29,09,20,10.80
2015,04,29,09,21,10.90
2015,04,29,09,22,10.90
2015,04,29,09,23,11.00
2015,04,29,09,24,11.10
2015,04,29,09,25,11.10
2015,04,29,09,26,11.20
2015,04,29,09,27,11.20
2015,04,29,09,28,11.20
2015,04,29,09,29,11.30
2015,04,29,09,30,11.30
2015,04,29,09,31,11.40
2015,04,29,09,32,11.50
2015,04,29,09,33,11.50
2015,04,29,09,34,11.60
2015,04,29,09,35,11.70
2015,04,29,09,36,11.70
2015,04,29,09,37,11.80
2015,04,29,09,38,11.80
2015,04,29,09,39,11.80
2015,04,29,09,40,11.70
2015,04,29,09,41,11.70
2015,04,29,09,42,11.70
2015,04,29,09,43,11.70
2015,04,29,09,44,11.60
2015,04,29,09,45,11.60
2015,04,29,09,46,11.50
2015,04,29,09,47,11.50
2015,04,29,09,48,11.40
2015,04,29,09,49,11.30
2015,04,29,09,50,11.30
2015,04,29,09,51,11.30
2015,04,29,09,52,11.40
2015,04,29,09,53,11.40
2015,04,29,09,54,11.40
2015,04,29,09,55,11.30
2015,04,29,09,56,11.30
2015,04,29,09,57,11.30
2015,04,29,09,58,11.30
2015,04,29,09,59,11.30
2015,04,29,10,00,11.20
2015,04,29,10,01,11.20
2015,04,29,10,02,11.10
2015,04,29,10,03,11.10
2015,04,29,10,04,11.10
2015,04,29,10,05,11.10
2015,04,29,10,06,11.10
2015,04,29,10,07,11.00
2015,04,29,10,08,11.00
2015,04,29,10,09,11.00
2015,04,29,10,10,11.00
2015,04,29,10,11,10.90
2015,04,29,10,12,10.90
2015,04,29,10,13,10.90
2015,04,29,10,14,11.00
2015,04,29,10,15,11.00
2015,04,29,10,16,11.10
2015,04,29,10,17,11.10
2015,04,29,10,18,11.20
2015,04,29,10,19,11.20
2015,04,29,10,20,11.20
2015,04,29,10,21,11.20
2015,04,29,10,22,11.20
2015,04,29,10,23,11.20
2015,04,29,10,24,11.20
2015,04,29,10,25,11.30
2015,04,29,10,26,11.30
2015,04,29,10,27,11.30
2015,04,29,10,28,11.30
2015,04,29,10,29,11.30
2015,04,29,10,30,11.30
2015,04,29,10,31,11.30
2015,04,29,10,32,11.30
2015,04,29,10,33,11.30
2015,04,29,10,34,11.30
2015,04,29,10,35,11.30
2015,04,29,10,36,11.30
2015,04,29,10,37,11.30
2015,04,29,10,38,11.40
2015,04,29,10,39,11.40
2015,04,29,10,40,11.50
2015,04,29,10,41,11.50
2015,04,29,10,42,11.60
2015,04,29,10,43,11.60
2015,04,29,10,44,11.70
2015,04,29,10,45,11.70
2015,04,29,10,46,11.80
2015,04,29,10,47,11.90
2015,04,29,10,48,11.90
2015,04,29,10,49,12.00
2015,04,29,10,50,12.10
2015,04,29,10,51,12.10
2015,04,29,10,52,12.10
2015,04,29,10,53,12.20
2015,04,29,10,54,12.30
2015,04,29,10,55,12.40
2015,04,29,10,56,12.40
2015,04,29,10,57,12.40
2015,04,29,10,58,12.50
2015,04,29,10,59,12.60
2015,04,29,11,00,12.60
2015,04,29,11,01,12.70
2015,04,29,11,02,12.80
2015,04,29,11,03,12.80
2015,04,29,11,04,12.80
2015,04,29,11,05,12.80
2015,04,29,11,06,12.90
2015,04,29,11,07,13.00
2015,04,29,11,08,13.10
2015,04,29,11,09,13.10
2015,04,29,11,10,13.20
2015,04,29,11,11,13.10
2015,04,29,11,12,13.00
2015,04,29,11,13,13.00
2015,04,29,11,14,13.00
2015,04,29,11,15,13.00
2015,04,29,11,16,13.00
2015,04,29,11,17,13.10
2015,04,29,11,18,13.10
2015,04,29,11,19,13.10
2015,04,29,11,20,13.20
2015,04,29,11,21,13.20
2015,04,29,11,22,13.30
2015,04,29,11,23,13.30
2015,04,29,11,24,13.40
2015,04,29,11,25,13.30
2015,04,29,11,26,13.30
2015,04,29,11,27,13.30
2015,04,29,11,28,13.30
2015,04,29,11,29,13.30
2015,04,29,11,30,13.30
2015,04,29,11,31,13.40
2015,04,29,11,32,13.40
2015,04,29,11,33,13.50
2015,04,29,11,34,13.60
2015,04,29,11,35,13.60
2015,04,29,11,36,13.60
2015,04,29,11,37,13.60
2015,04,29,11,38,13.50
2015,04,29,11,39,13.50
2015,04,29,11,40,13.60
2015,04,29,11,41,13.60
2015,04,29,11,42,13.70
2015,04,29,11,43,13.60
2015,04,29,11,44,13.60
2015,04,29,11,45,13.60
2015,04,29,11,46,13.60
2015,04,29,11,47,13.60
2015,04,29,11,48,13.60
2015,04,29,11,49,13.40
2015,04,29,11,50,13.40
2015,04,29,11,51,13.40
2015,04,29,11,52,13.40
2015,04,29,11,53,13.40
2015,04,29,11,54,13.40
2015,04,29,11,55,13.40
2015,04,29,11,56,13.40
2015,04,29,11,57,13.40
2015,04,29,11,58,13.50
2015,04,29,11,59,13.60
2015,04,29,12,00,13.70
2015,04,29,12,01,13.80
2015,04,29,12,02,13.90
2015,04,29,12,03,14.00
2015,04,29,12,04,14.00
2015,04,29,12,05,14.10
2015,04,29,12,06,14.20
2015,04,29,12,07,14.20
2015,04,29,12,08,14.10
2015,04,29,12,09,14.00
2015,04,29,12,10,13.80
2015,04,29,12,11,13.70
2015,04,29,12,12,13.60
2015,04,29,12,13,13.50
2015,04,29,12,14,13.50
2015,04,29,12,15,13.60
2015,04,29,12,16,13.60
2015,04,29,12,17,13.60
2015,04,29,12,18,13.70
2015,04,29,12,19,13.70
2015,04,29,12,20,13.60
2015,04,29,12,21,13.60
2015,04,29,12,22,13.60
2015,04,29,12,23,13.50
2015,04,29,12,24,13.50
2015,04,29,12,25,13.40
2015,04,29,12,26,13.40
2015,04,29,12,27,13.30
2015,04,29,12,28,13.30
2015,04,29,12,29,13.30
2015,04,29,12,30,13.30
2015,04,29,12,31,13.30
2015,04,29,12,32,13.30
2015,04,29,12,33,13.30
2015,04,29,12,34,13.20
2015,04,29,12,35,13.20
2015,04,29,12,36,13.20
2015,04,29,12,37,13.20
2015,04,29,12,38,13.20
2015,04,29,12,39,13.20
2015,04,29,12,40,13.20
2015,04,29,12,41,13.20
2015,04,29,12,42,13.20
2015,04,29,12,43,13.30
2015,04,29,12,44,13.30
2015,04,29,12,45,13.30
2015,04,29,12,46,13.30
2015,04,29,12,47,13.30
2015,04,29,12,48,13.30
2015,04,29,12,49,13.30
2015,04,29,12,50,13.30
2015,04,29,12,51,13.30
2015,04,29,12,52,13.30
2015,04,29,12,53,13.40
2015,04,29,12,54,13.40
2015,04,29,12,55,13.40
2015,04,29,12,56,13.50
2015,04,29,12,57,13.60
2015,04,29,12,58,13.70
2015,04,29,12,59,13.80
2015,04,29,13,00,13.90
2015,04,29,13,01,14.00
2015,04,29,13,02,14.10
2015,04,29,13,03,14.20
2015,04,29,13,04,14.30
2015,04,29,13,05,14.30
2015,04,29,13,06,14.30
2015,04,29,13,07,14.30
2015,04,29,13,08,14.30
2015,04,29,13,09,14.30
2015,04,29,13,10,14.30
2015,04,29,13,11,14.30
2015,04,29,13,12,14.20
2015,04,29,13,13,14.20
2015,04,29,13,14,14.10
2015,04,29,13,15,14.10
2015,04,29,13,16,14.10
2015,04,29,13,17,14.10
2015,04,29,13,18,14.10
2015,04,29,13,19,14.10
2015,04,29,13,20,14.10
2015,04,29,13,21,14.00
2015,04,29,13,22,14.00
2015,04,29,13,23,14.00
2015,04,29,13,24,14.00
2015,04,29,13,25,14.10
2015,04,29,13,26,14.10
2015,04,29,13,27,14.10
2015,04,29,13,28,14.00
2015,04,29,13,29,13.90
2015,04,29,13,30,13.90
2015,04,29,13,31,13.90
2015,04,29,13,32,13.90
2015,04,29,13,33,13.90
2015,04,29,13,34,13.90
2015,04,29,13,35,13.90
2015,04,29,13,36,13.90
2015,04,29,13,37,13.90
2015,04,29,13,38,13.90
2015,04,29,13,39,13.90
2015,04,29,13,40,13.90
2015,04,29,13,41,13.90
2015,04,29,13,42,13.90
2015,04,29,13,43,13.90
2015,04,29,13,44,13.90
2015,04,29,13,45,13.90
2015,04,29,13,46,13.90
2015,04,29,13,47,13.90
2015,04,29,13,48,13.90
2015,04,29,13,49,13.90
2015,04,29,13,50,13.90
2015,04,29,13,51,13.90
2015,04,29,13,52,13.90
2015,04,29,13,53,13.80
2015,04,29,13,54,13.80
2015,04,29,13,55,13.80
2015,04,29,13,56,13.80
2015,04,29,13,57,13.80
2015,04,29,13,58,13.70
2015,04,29,13,59,13.70
2015,04,29,14,00,13.70
2015,04,29,14,01,13.70
2015,04,29,14,02,13.70
2015,04,29,14,03,13.70
2015,04,29,14,04,13.70
2015,04,29,14,05,13.70
2015,04,29,14,06,13.70
2015,04,29,14,07,13.70
2015,04,29,14,08,13.70
2015,04,29,14,09,13.70
2015,04,29,14,10,13.60
2015,04,29,14,11,13.50
2015,04,29,14,12,13.40
2015,04,29,14,13,13.40
2015,04,29,14,14,13.40
2015,04,29,14,15,13.50
2015,04,29,14,16,13.50
2015,04,29,14,17,13.60
2015,04,29,14,18,13.70
2015,04,29,14,19,13.70
2015,04,29,14,20,13.80
2015,04,29,14,21,13.80
2015,04,29,14,22,13.80
2015,04,29,14,23,13.80
2015,04,29,14,24,13.90
2015,04,29,14,25,13.90
2015,04,29,14,26,13.90
2015,04,29,14,27,13.90
2015,04,29,14,28,13.90
2015,04,29,14,29,14.00
2015,04,29,14,30,14.00
2015,04,29,14,31,14.00
2015,04,29,14,32,14.10
2015,04,29,14,33,14.00
2015,04,29,14,34,14.00
2015,04,29,14,35,13.90
2015,04,29,14,36,13.80
2015,04,29,14,37,13.80
2015,04,29,14,38,13.70
2015,04,29,14,39,13.70
2015,04,29,14,40,13.60
2015,04,29,14,41,13.60
2015,04,29,14,42,13.50
2015,04,29,14,43,13.40
2015,04,29,14,44,13.30
2015,04,29,14,45,13.20
2015,04,29,14,46,13.20
2015,04,29,14,47,13.10
2015,04,29,14,48,13.10
2015,04,29,14,49,13.10
2015,04,29,14,50,13.10
2015,04,29,14,51,13.00
2015,04,29,14,52,13.00
2015,04,29,14,53,12.90
2015,04,29,14,54,12.90
2015,04,29,14,55,12.80
2015,04,29,14,56,12.80
2015,04,29,14,57,12.80
2015,04,29,14,58,12.80
2015,04,29,14,59,12.80
2015,04,29,15,00,12.80
2015,04,29,15,01,12.80
2015,04,29,15,02,12.80
2015,04,29,15,03,12.80
2015,04,29,15,04,12.80
2015,04,29,15,05,12.80
2015,04,29,15,06,12.80
2015,04,29,15,07,12.80
2015,04,29,15,08,12.80
2015,04,29,15,09,12.80
2015,04,29,15,10,12.80
2015,04,29,15,11,12.90
2015,04,29,15,12,12.90
2015,04,29,15,13,12.90
2015,04,29,15,14,12.90
2015,04,29,15,15,12.90
2015,04,29,15,16,12.90
2015,04,29,15,17,12.90
2015,04,29,15,18,13.00
2015,04,29,15,19,13.10
2015,04,29,15,20,13.10
2015,04,29,15,21,13.20
2015,04,29,15,22,13.20
2015,04,29,15,23,13.20
2015,04,29,15,24,13.20
2015,04,29,15,25,13.20
2015,04,29,15,26,13.20
2015,04,29,15,27,13.20
2015,04,29,15,28,13.20
2015,04,29,15,29,13.20
2015,04,29,15,30,13.10
2015,04,29,15,31,13.10
2015,04,29,15,32,13.00
2015,04,29,15,33,12.90
2015,04,29,15,34,12.90
2015,04,29,15,35,12.80
2015,04,29,15,36,12.80
2015,04,29,15,37,12.80
2015,04,29,15,38,12.80
2015,04,29,15,39,12.80
2015,04,29,15,40,12.80
2015,04,29,15,41,12.80
2015,04,29,15,42,12.80
2015,04,29,15,43,12.70
2015,04,29,15,44,12.70
2015,04,29,15,45,12.70
2015,04,29,15,46,12.70
2015,04,29,15,47,12.80
2015,04,29,15,48,12.80
2015,04,29,15,49,12.80
2015,04,29,15,50,12.80
2015,04,29,15,51,12.80
2015,04,29,15,52,12.90
2015,04,29,15,53,12.90
2015,04,29,15,54,12.90
2015,04,29,15,55,12.90
2015,04,29,15,56,12.90
2015,04,29,15,57,12.90
2015,04,29,15,58,13.00
2015,04,29,15,59,13.00
2015,04,29,16,00,13.00
2015,04,29,16,01,13.00
2015,04,29,16,02,13.10
2015,04,29,16,03,13.10
2015,04,29,16,04,13.00
2015,04,29,16,05,13.00
2015,04,29,16,06,13.00
2015,04,29,16,07,12.90
2015,04,29,16,08,12.90
2015,04,29,16,09,12.90
2015,04,29,16,10,12.90
2015,04,29,16,11,12.90
2015,04,29,16,12,12.90
2015,04,29,16,13,12.90
2015,04,29,16,14,13.00
2015,04,29,16,15,13.00
2015,04,29,16,16,13.00
2015,04,29,16,17,13.00
2015,04,29,16,18,13.10
2015,04,29,16,19,13.10
2015,04,29,16,20,13.10
2015,04,29,16,21,13.10
2015,04,29,16,22,13.10
2015,04,29,16,23,13.10
2015,04,29,16,24,13.20
2015,04,29,16,25,13.20
2015,04,29,16,26,13.20
2015,04,29,16,27,13.20
2015,04,29,16,28,13.20
2015,04,29,16,29,13.20
2015,04,29,16,30,13.20
2015,04,29,16,31,13.20
2015,04,29,16,32,13.20
2015,04,29,16,33,13.20
2015,04,29,16,34,13.20
2015,04,29,16,35,13.20
2015,04,29,16,36,13.30
2015,04,29,16,37,13.30
2015,04,29,16,38,13.30
2015,04,29,16,39,13.30
2015,04,29,16,40,13.30
2015,04,29,16,41,13.30
2015,04,29,16,42,13.30
2015,04,29,16,43,13.30
2015,04,29,16,44,13.30
2015,04,29,16,45,13.30
2015,04,29,16,46,13.30
2015,04,29,16,47,13.30
2015,04,29,16,48,13.30
2015,04,29,16,49,13.40
2015,04,29,16,50,13.40
2015,04,29,16,51,13.40
2015,04,29,16,52,13.50
2015,04,29,16,53,13.50
2015,04,29,16,54,13.60
2015,04,29,16,55,13.60
2015,04,29,16,56,13.60
2015,04,29,16,57,13.60
2015,04,29,16,58,13.60
2015,04,29,16,59,13.60
2015,04,29,17,00,13.60
2015,04,29,17,01,13.60
2015,04,29,17,02,13.60
2015,04,29,17,03,13.60
2015,04,29,17,04,13.60
2015,04,29,17,05,13.70
2015,04,29,17,06,13.70
2015,04,29,17,07,13.70
2015,04,29,17,08,13.70
2015,04,29,17,09,13.70
2015,04,29,17,10,13.70
2015,04,29,17,11,13.70
2015,04,29,17,12,13.70
2015,04,29,17,13,13.70
2015,04,29,17,14,13.70
2015,04,29,17,15,13.70
2015,04,29,17,16,13.70
2015,04,29,17,17,13.80
2015,04,29,17,18,13.80
2015,04,29,17,19,13.80
2015,04,29,17,20,13.80
2015,04,29,17,21,13.80
2015,04,29,17,22,13.80
2015,04,29,17,23,13.80
2015,04,29,17,24,13.80
2015,04,29,17,25,13.80
2015,04,29,17,26,13.70
2015,04,29,17,27,13.70
2015,04,29,17,28,13.70
2015,04,29,17,29,13.70
2015,04,29,17,30,13.70
2015,04,29,17,31,13.70
2015,04,29,17,32,13.70
2015,04,29,17,33,13.70
2015,04,29,17,34,13.70
2015,04,29,17,35,13.70
2015,04,29,17,36,13.80
2015,04,29,17,37,13.80
2015,04,29,17,38,13.80
2015,04,29,17,39,13.80
2015,04,29,17,40,13.80
2015,04,29,17,41,13.90
2015,04,29,17,42,13.90